Wind_Speed
11 11 10 9 9 8 8 7 6 6 6 5 4 3 3 2 3 4 5 5 6 6 7 8 8 10 11 12 13 13 15 17 18 20 21 22 23 24
10 10 9 9 8 8 7 7 8 8 7 6 6 5 5 5 5 6 6 7 7 8 8 9 10 11 12 13 14 15 16 17 19 21 23 23 24 25
9 9 8 8 8 8 8 8 8 8 8 7 7 7 7 7 7 8 8 9 9 10 11 11 13 14 15 16 17 18 19 19 20 22 24 25 25 26
10 9 9 8 8 8 8 9 9 9 9 9 9 8 8 9 9 10 10 11 12 13 13 15 16 17 18 19 20 21 22 23 24 24 25 26 27 28
10 10 9 9 9 10 10 10 10 11 11 11 11 10 10 10 11 11 12 13 14 15 16 17 18 19 19 21 22 23 24 25 26 27 28 28 29 30
9 10 10 10 11 11 12 12 12 12 12 12 13 13 13 13 13 13 14 15 17 18 19 20 21 22 23 24 25 25 26 27 28 29 30 31 32 32
10 11 12 12 13 13 14 14 14 14 14 14 15 15 15 15 16 16 17 17 19 20 22 23 24 25 27 28 28 29 30 31 31 32 32 33 34 35
12 12 13 14 14 15 16 15 15 16 16 17 17 18 18 18 19 20 20 21 22 23 25 27 28 29 31 32 33 33 34 34 35 36 36 36 37 37
13 14 14 15 16 17 18 18 18 18 18 19 20 20 21 22 22 23 24 25 27 28 29 30 32 33 35 36 37 37 38 39 39 40 40 41 41 42
14 15 16 17 18 19 19 20 20 20 21 22 23 23 24 25 26 26 28 29 31 33 34 35 36 38 39 40 40 41 42 42 43 44 44 45 45 45
17 17 18 19 20 21 22 22 22 23 24 25 26 27 27 28 28 30 32 33 35 37 38 39 40 41 42 43 44 45 46 46 47 47 48 49 49 49
19 20 21 22 23 23 24 24 25 26 27 28 29 30 30 31 32 35 36 37 38 40 41 42 43 45 44 45 46 48 50 51 52 52 53 53 54 54
21 22 23 24 25 26 27 27 28 29 30 31 32 33 34 35 37 39 40 42 43 43 45 46 47 48 48 47 47 49 52 54 55 57 57 58 58 59
24 25 26 27 28 29 30 31 31 32 34 34 35 36 38 40 42 43 45 46 47 47 48 49 50 51 51 51 51 52 54 57 58 59 61 61 62 62
27 28 29 30 31 32 33 34 35 36 37 38 39 40 42 44 45 46 48 49 50 50 51 52 52 53 52 53 54 54 56 57 59 61 62 62 63 63
30 31 32 33 34 35 36 37 38 39 40 41 42 44 46 47 48 49 49 50 50 50 51 52 52 53 53 55 56 57 59 60 60 61 62 62 63 65
32 33 35 36 37 38 39 39 41 42 43 44 46 47 48 48 49 50 50 50 50 50 50 51 53 55 56 58 59 60 62 63 63 64 64 63 64 65
35 36 38 39 40 40 41 42 43 45 46 47 48 48 49 49 49 50 50 51 51 52 53 54 55 56 58 59 61 62 62 63 63 64 64 65 64 64
38 39 40 41 42 42 43 44 45 47 48 49 49 49 49 50 50 51 52 53 54 55 56 58 59 61 61 61 60 62 62 62 62 62 63 64 63 61
40 41 42 43 43 44 45 46 47 48 49 49 49 50 50 51 52 53 54 56 57 58 59 60 62 63 64 63 61 60 61 62 62 61 61 60 59 58
43 43 44 45 45 46 47 48 49 50 50 50 51 51 53 54 55 56 57 59 60 61 61 62 63 64 65 64 62 60 59 60 60 60 58 57 56 55
44 45 46 47 48 48 49 50 50 51 51 52 53 54 55 56 57 58 59 60 61 62 63 63 63 63 63 62 61 59 58 57 57 56 56 55 54 52
47 48 48 49 50 50 51 51 52 52 53 54 55 56 57 58 59 60 61 62 63 63 63 62 62 61 61 61 60 59 58 56 54 53 52 51 51 50
Wind_Direction
51 52 52 50 46 43 40 35 27 23 19 12 3 353 334 308 287 275 266 262 260 260 263 262 259 256 255 255 256 255 256 255 253 250 248 247 246 246
44 43 42 40 36 32 29 23 17 12 5 359 350 338 321 303 294 286 278 271 269 269 271 269 267 265 264 264 263 261 262 261 261 258 256 253 252 251
36 32 28 24 20 16 12 8 3 358 352 347 340 328 315 304 295 289 283 275 271 271 274 274 273 271 270 270 268 268 266 265 264 262 259 257 257 257
26 22 18 14 9 4 360 355 351 345 339 335 332 325 314 304 295 288 283 279 275 274 276 277 277 276 274 273 271 271 270 269 267 266 263 262 260 259
11 10 7 2 359 355 352 349 344 339 335 330 327 321 315 308 300 291 284 281 277 275 274 277 278 278 278 277 274 273 271 271 270 268 267 266 265 264
355 354 353 350 346 343 341 339 335 332 329 325 321 317 312 308 305 298 291 286 282 279 277 278 278 279 280 279 278 276 274 271 270 269 268 267 266 265
339 340 340 338 337 334 332 329 327 325 321 317 315 312 308 305 302 299 293 289 286 284 283 283 282 281 280 279 279 279 276 273 271 271 270 269 268 266
329 329 330 330 330 329 327 323 320 319 317 313 311 308 305 301 299 296 292 290 288 286 286 285 284 283 283 281 281 280 277 275 273 272 271 270 269 267
320 321 323 324 323 322 320 317 314 313 312 311 308 305 303 300 298 296 294 292 290 289 288 287 286 285 284 283 282 280 278 276 274 272 271 271 270 269
314 316 316 317 317 318 317 314 311 310 310 308 307 304 301 300 298 297 296 294 293 291 289 288 287 286 286 284 282 280 279 277 275 273 272 271 270 270
308 310 311 313 314 315 314 312 311 310 308 306 305 303 302 301 300 300 297 295 293 292 291 290 288 288 287 285 284 282 281 279 277 276 274 272 271 270
305 307 308 309 310 311 311 310 309 308 307 305 304 304 302 301 300 301 299 297 296 294 292 291 290 289 287 285 283 282 281 281 280 278 276 273 272 271
301 303 304 306 307 308 308 308 307 307 306 305 303 302 302 301 301 300 299 299 299 296 293 292 291 289 287 285 283 283 282 282 281 279 277 274 272 271
299 301 302 303 305 306 306 306 306 306 305 304 302 301 301 301 301 300 299 299 299 297 294 292 292 290 288 286 284 284 284 283 282 280 277 275 273 271
298 299 301 302 303 304 305 305 305 305 304 303 302 301 301 302 302 301 300 299 299 297 295 294 293 292 290 289 288 287 286 285 284 281 279 276 273 272
297 299 300 301 302 303 304 303 304 304 303 303 302 302 302 302 302 302 301 300 300 299 298 297 296 294 293 294 293 291 290 289 286 283 281 278 275 274
296 298 300 301 302 303 303 304 304 304 304 303 303 303 303 303 303 303 303 303 302 301 300 299 298 297 297 297 296 294 292 290 288 286 283 279 277 276
296 298 299 300 301 302 303 304 304 304 304 304 304 303 303 303 304 304 304 304 303 302 301 299 298 298 297 298 297 295 294 291 289 288 285 282 280 278
296 298 299 300 301 301 302 303 304 304 304 304 304 304 304 304 304 304 305 304 303 303 303 301 300 300 299 298 297 296 295 293 291 289 288 286 283 281
296 298 299 300 301 301 302 303 304 304 305 304 304 304 304 304 304 304 304 304 304 304 303 303 302 301 300 299 298 296 295 294 293 292 290 288 285 283
297 298 299 300 301 301 302 303 304 304 304 304 304 304 304 305 305 304 304 304 304 304 304 303 302 302 302 301 299 298 297 296 296 295 292 289 286 284
297 298 299 300 301 302 302 303 304 304 304 304 305 305 305 305 305 305 305 305 305 305 304 304 303 303 303 302 301 300 298 297 296 295 294 292 290 287
297 298 298 299 300 301 302 303 303 304 304 304 305 305 305 306 306 306 306 306 306 306 305 305 304 304 303 302 302 301 300 298 296 294 293 292 290 289
Height
5874 5874 5873 5872 5871 5871 5870 5869 5869 5868 5867 5866 5865 5865 5864 5864 5864 5864 5864 5864 5865 5865 5866 5866 5866 5867 5867 5867 5868 5868 5868 5869 5869 5869 5870 5871 5872 5873
5876 5875 5874 5873 5872 5871 5870 5869 5868 5867 5866 5865 5864 5863 5862 5862 5862 5862 5862 5862 5863 5863 5863 5864 5864 5864 5864 5864 5864 5865 5864 5865 5865 5865 5865 5866 5866 5867
5877 5876 5875 5874 5872 5871 5870 5869 5868 5866 5865 5864 5862 5861 5860 5859 5859 5859 5859 5859 5860 5860 5860 5860 5861 5860 5860 5860 5860 5860 5860 5860 5860 5860 5859 5860 5860 5861
5878 5876 5875 5874 5872 5871 5869 5868 5866 5865 5863 5862 5860 5859 5858 5857 5856 5856 5856 5856 5856 5857 5857 5856 5856 5856 5856 5855 5855 5855 5855 5854 5854 5854 5853 5854 5854 5854
5878 5877 5875 5874 5872 5871 5869 5867 5865 5863 5861 5859 5858 5856 5855 5854 5853 5853 5852 5852 5852 5852 5852 5852 5851 5851 5850 5850 5849 5848 5848 5847 5847 5847 5846 5846 5846 5846
5878 5876 5875 5873 5871 5870 5868 5866 5864 5861 5859 5857 5855 5854 5852 5851 5850 5849 5849 5848 5848 5847 5847 5846 5846 5845 5844 5843 5842 5841 5840 5840 5839 5838 5838 5838 5838 5838
5877 5875 5874 5872 5870 5868 5866 5864 5861 5859 5857 5855 5853 5851 5849 5848 5847 5845 5844 5843 5842 5842 5841 5840 5839 5838 5836 5835 5834 5832 5831 5830 5830 5829 5829 5828 5828 5828
5876 5874 5872 5870 5868 5866 5863 5861 5859 5856 5854 5852 5850 5848 5846 5844 5842 5840 5839 5838 5837 5836 5834 5833 5831 5829 5827 5825 5824 5822 5821 5820 5819 5818 5818 5817 5817 5817
5873 5872 5870 5867 5865 5863 5860 5858 5855 5853 5850 5848 5846 5843 5841 5839 5837 5835 5833 5831 5829 5828 5826 5824 5821 5819 5817 5814 5812 5810 5808 5807 5806 5805 5805 5805 5804 5804
5870 5868 5867 5864 5862 5859 5856 5854 5851 5849 5846 5843 5841 5838 5835 5833 5830 5829 5826 5824 5821 5818 5816 5814 5811 5808 5805 5802 5799 5797 5795 5794 5792 5791 5791 5790 5790 5790
5866 5864 5862 5860 5858 5855 5852 5849 5846 5844 5841 5838 5835 5831 5828 5826 5823 5821 5818 5815 5812 5808 5804 5801 5798 5795 5792 5788 5785 5782 5780 5778 5777 5775 5774 5774 5774 5774
5862 5860 5858 5855 5853 5850 5847 5844 5841 5838 5835 5831 5828 5824 5821 5817 5814 5811 5808 5804 5801 5797 5792 5788 5785 5781 5778 5775 5771 5767 5764 5761 5759 5758 5756 5755 5754 5754
5857 5855 5852 5850 5847 5844 5841 5838 5834 5831 5828 5824 5820 5817 5813 5809 5804 5800 5796 5792 5787 5783 5778 5774 5770 5765 5761 5759 5757 5752 5748 5744 5741 5739 5737 5735 5734 5734
5851 5848 5846 5843 5840 5837 5833 5830 5827 5823 5819 5816 5812 5807 5803 5799 5794 5789 5784 5779 5773 5768 5762 5758 5753 5749 5745 5742 5739 5736 5731 5726 5722 5719 5716 5714 5713 5712
5844 5841 5838 5835 5832 5829 5825 5821 5818 5814 5810 5806 5801 5797 5792 5787 5781 5776 5770 5764 5759 5752 5746 5741 5736 5732 5727 5723 5720 5717 5713 5708 5702 5698 5695 5692 5691 5690
5836 5833 5830 5827 5824 5820 5816 5812 5808 5804 5799 5795 5790 5785 5779 5774 5768 5762 5756 5750 5745 5739 5731 5725 5720 5715 5710 5706 5701 5697 5691 5687 5682 5677 5673 5671 5669 5667
5827 5825 5821 5818 5814 5810 5806 5802 5797 5793 5788 5783 5778 5772 5766 5760 5754 5747 5741 5736 5730 5725 5719 5712 5705 5699 5693 5688 5683 5677 5671 5666 5660 5655 5651 5649 5648 5644
5819 5815 5812 5808 5804 5800 5795 5791 5786 5781 5775 5770 5764 5758 5752 5746 5740 5734 5728 5722 5716 5710 5704 5697 5691 5685 5679 5673 5664 5656 5651 5644 5639 5634 5628 5625 5624 5622
5809 5805 5801 5797 5793 5789 5784 5779 5774 5768 5763 5757 5751 5745 5739 5733 5727 5721 5714 5708 5701 5695 5688 5680 5673 5665 5660 5656 5651 5639 5629 5623 5617 5613 5607 5602 5599 5598
5798 5794 5790 5786 5781 5777 5772 5767 5761 5756 5750 5744 5738 5732 5726 5719 5713 5707 5700 5693 5686 5679 5672 5664 5654 5646 5638 5633 5629 5624 5612 5602 5596 5592 5587 5581 5577 5574
5786 5782 5778 5774 5769 5764 5759 5754 5748 5742 5736 5730 5724 5718 5712 5705 5698 5692 5684 5677 5669 5662 5654 5647 5637 5628 5619 5612 5607 5603 5596 5586 5576 5570 5565 5560 5557 5555
5774 5770 5766 5761 5756 5751 5746 5740 5735 5729 5723 5717 5710 5704 5697 5690 5683 5676 5668 5660 5653 5644 5636 5628 5619 5611 5602 5594 5587 5582 5578 5571 5562 5553 5546 5540 5535 5533
5762 5757 5753 5748 5743 5738 5732 5727 5721 5715 5709 5703 5696 5689 5682 5675 5667 5659 5651 5643 5634 5626 5618 5610 5602 5594 5585 5577 5570 5564 5558 5552 5546 5540 5535 5526 5520 5516